[[{"header":{"parameterUnit":"m.s-1","parameterCategory":1,"la1":30.2991,"la2":30.254,"lo1":-89.0895,"lo2":-89.0444,"dy":0.0017,"dx":0.0017,"nx":28,"ny":28,"refTime":"2025-04-03T09:00:00:Z","depth":0,"parameterNumber":2,"parameterNumberName":"U-component_of_WINDS"},"data":[0,0,0,0,0,0,0,0,0,0,0,0,0,0,0,0,0,0,0,0,0,0,0,0,0,0,0,0,0,0,0,0,0,0,0,0,0,0,0,0,0,0,0,0,0,0,0,0,0,0,0,0,0,0,0,0,0,0,-5.6656,-5.6657,0,-5.6763,-5.6764,-5.6766,-5.6762,-5.6761,-5.6759,-5.6758,-5.6865,-5.6869,-5.6874,0,0,0,0,0,0,0,0,0,0,0,0,0,-5.6446,-5.6449,-5.6655,-5.6657,-5.6658,-5.6763,-5.6765,-5.6766,-5.6763,-5.6761,-5.6759,-5.6757,-5.6864,-5.6869,-5.6874,0,0,0,0,0,0,0,0,0,0,0,0,0,-5.6543,-5.6451,-5.6655,-5.6669,-5.6672,-5.6763,-5.6765,-5.6766,-5.6763,-5.6761,-5.6759,-5.6757,-5.6862,-5.6868,-5.6875,-5.6958,0,0,-5.6894,-5.6897,0,0,0,0,0,0,0,0,-5.6538,-5.6551,-5.6666,-5.6669,-5.6671,-5.6747,-5.673,-5.6831,-5.6764,-5.6728,-5.6758,-5.6755,-5.6828,-5.6837,-5.6862,-5.6963,-5.6968,-5.6895,-5.6898,-5.6901,-5.6903,0,0,0,0,0,0,0,-5.6531,-5.6546,-5.6698,-5.6668,-5.6671,-5.667,-5.6681,-5.6749,-5.6789,-5.6731,-5.6731,-5.6744,-5.6829,-5.6856,-5.6864,-5.6969,-5.6894,-5.69,-5.6904,-5.6906,-5.7145,-5.7147,0,0,0,0,0,0,-5.6522,-5.6541,-5.6695,-5.6701,-5.6598,-5.6675,-5.6688,-5.6725,-5.6788,-5.6796,-5.6746,-5.6744,-5.6846,-5.6857,-5.6868,-5.6969,-5.6901,-5.6907,-5.6911,-5.7143,-5.7146,-5.7148,0,0,0,0,0,0,-5.6517,-5.6535,-5.669,-5.6621,-5.6641,-5.6681,-5.6723,-5.6728,-5.6755,-5.6799,-5.6806,-5.6766,-5.6844,-5.6859,-5.6936,-5.6973,-5.691,-5.6916,-5.714,-5.7143,-5.7147,-5.7172,0,0,0,0,0,0,-5.6511,-5.6534,-5.6566,-5.6622,-5.6645,-5.6757,-5.6725,-5.6732,-5.6766,-5.6764,-5.682,-5.6827,-5.6844,-5.6927,-5.6942,-5.698,-5.6921,-5.7136,-5.7141,-5.7146,-5.7168,-5.7176,-5.7183,0,0,0,0,0,-5.6504,-5.6568,-5.6567,-5.6586,-5.6686,-5.6759,-5.6772,-5.679,-5.6769,-5.6802,-5.6831,-5.6825,-5.6967,-5.6934,-5.6952,-5.6992,-5.7134,-5.714,-5.7145,-5.7164,-5.7174,-5.7183,0,0,0,0,0,0,-5.6513,-5.6575,-5.6575,-5.666,-5.6705,-5.6758,-5.6799,-5.68,-5.6851,-5.6846,-5.6867,-5.688,-5.6957,-5.6983,-5.6946,-5.7077,-5.7048,-5.7057,-5.7056,-5.7066,-5.7073,-5.7064,-5.6926,0,0,0,0,0,-5.6526,-5.6581,-5.6632,-5.6702,-5.6724,-5.6758,-5.6791,-5.6802,-5.6848,-5.6866,-5.6901,-5.6945,-5.7,-5.7035,-5.7088,-5.7173,-5.7185,-5.721,-5.7217,-5.7223,-5.723,-5.7277,-5.7288,-5.7167,-5.7167,-5.7167,0,0,-5.6551,-5.6592,-5.6625,-5.6705,-5.674,-5.6796,-5.6774,-5.6834,-5.6875,-5.6875,-5.6949,-5.6977,-5.7028,-5.711,-5.7147,-5.7134,-5.7267,-5.7231,-5.7235,-5.7239,-5.7284,-5.7296,-5.7306,-5.7171,-5.717,-5.717,0,0,-5.6625,-5.6662,-5.6724,-5.6761,-5.6816,-5.6839,-5.6854,-5.6908,-5.6927,-5.7002,-5.7004,-5.7054,-5.7147,-5.7184,-5.7214,-5.7305,-5.7302,-5.7322,-5.736,-5.7406,-5.7415,-5.7424,-5.7455,-5.7466,-5.733,-5.733,-5.733,0,-5.6648,-5.6733,-5.6755,-5.6816,-5.6851,-5.6856,-5.6918,-5.6953,-5.7022,-5.7045,-5.703,-5.7149,-5.7183,-5.7273,-5.7296,-5.7321,-5.7338,-5.7314,-5.7412,-5.7421,-5.7429,-5.7459,-5.7471,-5.7332,-5.7332,-5.7331,-5.7331,0,-5.6759,-5.6818,-5.6862,-5.6929,-5.697,-5.7031,-5.7062,-5.71,-5.7109,-5.7133,-5.721,-5.7253,-5.7314,-5.7337,-5.7346,-5.7429,-5.7419,-5.7408,-5.7378,-5.7442,-5.747,-5.7482,-5.7334,-5.7334,-5.7333,-5.7333,0,0,-5.6838,-5.692,-5.6935,-5.6966,-5.7029,-5.7074,-5.7137,-5.7198,-5.7229,-5.7278,-5.7329,-5.741,-5.7401,-5.7436,-5.7449,-5.749,-5.7558,-5.7474,-5.7476,-5.7486,-5.7651,-5.7656,-5.7669,-5.7558,-5.756,-5.7562,-5.7646,0,-5.6917,-5.7027,-5.705,-5.7145,-5.7199,-5.7207,-5.7261,-5.7305,-5.7331,-5.738,-5.7408,-5.7464,-5.7449,-5.747,-5.7511,-5.7541,-5.759,-5.7536,-5.7604,-5.7606,-5.7588,-5.7684,-5.769,-5.7766,-5.7657,-5.7659,-5.766,0,-5.7022,-5.7074,-5.7175,-5.7231,-5.7255,-5.7303,-5.7362,-5.741,-5.746,-5.7476,-5.7517,-5.7526,-5.7591,-5.7561,-5.765,-5.7612,-5.7642,-5.7662,-5.7665,-5.7669,-5.7634,-5.7688,-5.7791,-5.7802,-5.7678,-5.7677,-5.7675,0,-5.7067,-5.7163,-5.7236,-5.7262,-5.733,-5.7364,-5.7394,-5.7442,-5.7478,-5.753,-5.7553,-5.7612,-5.7643,-5.7688,-5.7712,-5.7689,-5.7799,-5.7772,-5.7812,-5.7811,-5.7832,-5.7829,-5.7938,-5.7856,-5.7856,-5.7856,-5.7856,0,-5.715,-5.7211,-5.7257,-5.7301,-5.737,-5.7396,-5.7463,-5.7493,-5.7537,-5.7586,-5.7598,-5.7644,-5.7676,-5.7727,-5.7747,-5.7816,-5.7831,-5.7845,-5.7849,-5.7842,-5.784,-5.7859,-5.7853,-5.7859,-5.7858,-5.7858,-5.7857,0,-5.721,-5.7243,-5.7323,-5.7382,-5.7398,-5.7446,-5.7496,-5.7539,-5.7567,-5.763,-5.7646,-5.7688,-5.7749,-5.7779,-5.7855,-5.7869,-5.7947,-5.7949,-5.7929,-5.793,-5.7968,-5.7963,-5.8091,-5.8108,-5.8017,-5.8018,-5.8019,0,-5.7259,-5.7307,-5.7371,-5.7406,-5.7437,-5.7493,-5.753,-5.7559,-5.7597,-5.766,-5.7696,-5.7758,-5.7808,-5.7905,-5.7942,-5.8,-5.8002,-5.8043,-5.801,-5.8002,-5.7999,-5.7995,-5.7999,-5.8047,-5.8048,-5.8048,-5.8049,0,-5.7343,-5.7358,-5.7411,-5.7471,-5.7516,-5.7564,-5.7612,-5.7639,-5.7676,-5.7719,-5.7782,-5.7821,-5.79,-5.796,-5.8022,-5.8052,-5.8056,-5.806,-5.8072,-5.8063,-5.8049,-5.8055,-5.7942,-5.8056,-5.8055,-5.8054,-5.8054,-5.8054,-5.7397,-5.7439,-5.7492,-5.7552,-5.7591,-5.7636,-5.7679,-5.7713,-5.7766,-5.7833,-5.7847,-5.7914,-5.7964,-5.8047,-5.808,-5.8132,-5.8123,-5.8141,-5.8145,-5.8148,-5.8149,-5.8044,-5.8144,-5.8144,-5.8144,-5.8143,-5.8143,0,-5.7479,-5.7514,-5.7569,-5.7636,-5.7683,-5.7686,-5.774,-5.7778,-5.7837,-5.7885,-5.7935,-5.8008,-5.8067,-5.811,-5.8171,-5.8205,-5.8208,-5.8219,-5.8215,-5.8222,-5.8155,-5.8137,-5.8215,-5.8215,-5.8215,-5.8215,-5.8215,-5.8215,-5.7527,-5.7598,-5.762,-5.7711,-5.7746,-5.7812,-5.7842,-5.7883,-5.7921,-5.8002,-5.8052,-5.8081,-5.8127,-5.8191,-5.8246,-5.8257,-5.8278,-5.8289,-5.83,-5.8235,-5.8227,-5.8219,-5.8203,-5.8294,-5.8294,-5.8362,-5.8363,-5.8364]},{"header":{"parameterUnit":"m.s-1","parameterCategory":1,"la1":30.2991,"la2":30.254,"lo1":-89.0895,"lo2":-89.0444,"dy":0.0017,"dx":0.0017,"nx":28,"ny":28,"refTime":"2025-04-03T09:00:00:Z","depth":0,"parameterNumber":3,"parameterNumberName":"V-component_of_WINDS"},"data":[0,0,0,0,0,0,0,0,0,0,0,0,0,0,0,0,0,0,0,0,0,0,0,0,0,0,0,0,0,0,0,0,0,0,0,0,0,0,0,0,0,0,0,0,0,0,0,0,0,0,0,0,0,0,0,0,0,0,3.4075,3.4076,0,3.4165,3.4166,3.4167,3.42,3.4199,3.4199,3.4199,3.4287,3.4289,3.4292,0,0,0,0,0,0,0,0,0,0,0,0,0,3.3928,3.3931,3.4075,3.4076,3.4077,3.4165,3.4166,3.4167,3.42,3.4199,3.4199,3.4199,3.4286,3.4289,3.4292,0,0,0,0,0,0,0,0,0,0,0,0,0,3.4002,3.3931,3.4074,3.4104,3.4107,3.4165,3.4166,3.4168,3.42,3.4199,3.4199,3.4198,3.4285,3.4289,3.4293,3.4326,0,0,3.4305,3.4306,0,0,0,0,0,0,0,0,3.3998,3.4008,3.4098,3.4102,3.4106,3.4171,3.4147,3.4221,3.42,3.4164,3.4199,3.4198,3.4248,3.4255,3.4273,3.433,3.4334,3.4305,3.4307,3.4309,3.431,0,0,0,0,0,0,0,3.3993,3.4004,3.411,3.41,3.4104,3.4112,3.4122,3.4161,3.4208,3.4168,3.417,3.4181,3.425,3.4269,3.4275,3.4335,3.4305,3.4308,3.4311,3.4312,3.4428,3.4428,0,0,0,0,0,0,3.3983,3.3999,3.4107,3.4113,3.405,3.4115,3.4126,3.415,3.4207,3.4216,3.4181,3.4182,3.4263,3.4271,3.4279,3.4324,3.4309,3.4313,3.4315,3.4427,3.4428,3.4429,0,0,0,0,0,0,3.398,3.3993,3.4104,3.4057,3.4072,3.4118,3.4145,3.4152,3.4171,3.4218,3.4226,3.4192,3.4263,3.4273,3.4315,3.4327,3.4315,3.4318,3.4426,3.4427,3.4428,3.4413,0,0,0,0,0,0,3.3976,3.3991,3.4005,3.4057,3.4074,3.4139,3.4146,3.4154,3.4179,3.4181,3.423,3.4238,3.4263,3.4309,3.4319,3.4332,3.4321,3.4425,3.4427,3.4428,3.4412,3.4413,3.4414,0,0,0,0,0,3.397,3.3995,3.4005,3.4018,3.4092,3.414,3.415,3.418,3.4179,3.4193,3.4224,3.4236,3.4324,3.4313,3.4325,3.4339,3.4425,3.4426,3.4428,3.4412,3.4413,3.4414,0,0,0,0,0,0,3.394,3.4002,3.4014,3.4057,3.4093,3.4145,3.4164,3.4179,3.4215,3.4215,3.4249,3.426,3.43,3.4324,3.431,3.4376,3.4375,3.4379,3.4359,3.436,3.4361,3.4355,3.4325,0,0,0,0,0,3.3939,3.3974,3.4026,3.4058,3.4076,3.4117,3.4139,3.4159,3.4197,3.4212,3.4245,3.4281,3.4317,3.434,3.4375,3.4416,3.4428,3.4432,3.4432,3.4433,3.4436,3.4461,3.4464,3.4434,3.4434,3.4434,0,0,3.3936,3.3974,3.3994,3.4053,3.4084,3.4119,3.4129,3.4165,3.4191,3.4217,3.426,3.4286,3.4328,3.437,3.439,3.4391,3.4447,3.4435,3.4435,3.4438,3.4463,3.4466,3.4469,3.4435,3.4435,3.4434,0,0,3.3949,3.3981,3.4013,3.4044,3.4091,3.4119,3.4126,3.4177,3.4196,3.424,3.4261,3.4292,3.4353,3.4383,3.4406,3.4434,3.4448,3.4444,3.4448,3.4472,3.4475,3.4477,3.4488,3.4492,3.4447,3.4447,3.4447,0,3.3939,3.3993,3.4027,3.4063,3.4089,3.4117,3.415,3.4178,3.4233,3.4251,3.4251,3.433,3.436,3.4411,3.4418,3.4436,3.4446,3.4439,3.4472,3.4475,3.4477,3.4489,3.4493,3.4447,3.4447,3.4447,3.4447,0,3.398,3.4017,3.4037,3.4093,3.4122,3.4155,3.4194,3.4219,3.4237,3.4265,3.431,3.4348,3.4393,3.4406,3.4423,3.446,3.4459,3.4465,3.4465,3.4479,3.449,3.4495,3.4446,3.4446,3.4446,3.4446,0,0,3.3974,3.4051,3.4058,3.4085,3.414,3.4169,3.4205,3.4251,3.4273,3.431,3.4342,3.4394,3.4401,3.4428,3.4449,3.447,3.4492,3.4474,3.4475,3.4477,3.4537,3.4533,3.4537,3.4501,3.4502,3.4503,3.4534,0,3.3995,3.4062,3.4095,3.4148,3.4184,3.4212,3.4243,3.4281,3.4308,3.4342,3.4371,3.4409,3.4414,3.4431,3.4453,3.4484,3.4505,3.4483,3.4531,3.4532,3.4521,3.4543,3.4538,3.4565,3.4538,3.4539,3.454,0,3.4028,3.4069,3.4126,3.418,3.4196,3.4224,3.4271,3.4303,3.4346,3.4365,3.4396,3.4417,3.4456,3.4453,3.4508,3.4493,3.4515,3.4533,3.4535,3.4541,3.4537,3.4551,3.4575,3.4579,3.4547,3.4546,3.4546,0,3.4021,3.4089,3.4133,3.4155,3.4219,3.4238,3.4265,3.4309,3.4335,3.4375,3.4393,3.4436,3.446,3.4493,3.4525,3.452,3.4578,3.4577,3.4594,3.4593,3.4605,3.4604,3.4634,3.4617,3.4617,3.4617,3.4617,0,3.4041,3.4075,3.4131,3.4158,3.4198,3.4235,3.4273,3.4302,3.4341,3.4374,3.44,3.443,3.4471,3.4506,3.4532,3.4574,3.4584,3.46,3.4607,3.4599,3.4597,3.4614,3.4613,3.4618,3.4618,3.4618,3.4618,0,3.4039,3.4078,3.4128,3.4185,3.4201,3.4227,3.4276,3.4304,3.4333,3.4375,3.4387,3.4432,3.4476,3.4512,3.4568,3.4585,3.463,3.4637,3.4616,3.462,3.4635,3.4634,3.4678,3.4686,3.4663,3.4663,3.4663,0,3.4049,3.4077,3.4139,3.4164,3.4192,3.4231,3.4259,3.4298,3.4326,3.4379,3.44,3.4446,3.4485,3.4553,3.4591,3.4634,3.4643,3.4656,3.465,3.4642,3.4645,3.4644,3.4647,3.4656,3.4656,3.4656,3.4656,0,3.4065,3.4084,3.4124,3.4173,3.4207,3.4246,3.4285,3.4304,3.435,3.438,3.4426,3.4457,3.4516,3.4562,3.461,3.4637,3.4655,3.4658,3.4665,3.4657,3.4645,3.4653,3.4619,3.4657,3.4657,3.4657,3.4657,3.4657,3.4071,3.4097,3.4146,3.4191,3.4226,3.4263,3.4293,3.4328,3.4367,3.442,3.444,3.4488,3.4532,3.46,3.4627,3.4665,3.4667,3.4676,3.4678,3.468,3.468,3.4638,3.4674,3.4674,3.4674,3.4674,3.4674,0,3.4089,3.4122,3.4164,3.422,3.4256,3.4272,3.4317,3.4346,3.4388,3.4429,3.4468,3.4522,3.4568,3.461,3.4657,3.4679,3.4689,3.4691,3.469,3.4696,3.4675,3.4665,3.4682,3.4682,3.4682,3.4682,3.4682,3.4682,3.4102,3.415,3.4175,3.424,3.4273,3.4321,3.4346,3.4381,3.4415,3.4475,3.4514,3.4542,3.4584,3.4635,3.4678,3.4689,3.4706,3.4706,3.4719,3.4698,3.4697,3.4696,3.4687,3.4709,3.4709,3.4738,3.4738,3.4738]}]]